Weather in Vasiss

Russia / Omsk Oblast     57°27′08″N   74°46′26″E
temp.,
°C
wind,
m/s
gust,
m/s
humid.,
%
clouds,
%
prec.,
mm/h
press.,
hPa
HPBL,
m
6 may, thu
thu600:00+10s313610 0.0 1005296
03:00+9sse312675 0.0 1003272
06:00+10s4136714 0.0 1000298
09:00+17s51646100 0.0 998524
12:00+22ssw7123499 0.0 9971628
15:00+19w7950100 0.0 9991983
18:00+16nw510415 0.0 10022131
21:00+12wnw4104841 0.0 1005362
7 may, fri
fri700:00+8w27643 0.0 1008178
03:00+5w29765 0.0 1009246
06:00+5wsw310725 0.0 1010474
09:00+9w6953100 0.0 10121763
12:00+11wnw6103992 0.1 10131985
15:00+13wnw711345 0.0 10142000
18:00+14wnw513330 0.0 10151925
21:00+10w37480 0.0 1016139
8 may, sat
sat800:00+8wsw313625 0.0 1017291
03:00+8w3126740 0.0 1018291
06:00+9w311725 0.0 1019302
09:00+15w48565 0.0 1019662
12:00+19wnw594041 0.0 10192311
15:00+19nnw484072 0.0 10181558
18:00+19nnw474173 0.0 10191121
21:00+13nne1164100 0.0 101910
9 may, sun
sun900:00+11sse1171100 0.0 102010
03:00+11wnw007191 0.0 102010
06:00+11ne117576 0.0 102019
09:00+16e1157100 0.0 1021337
12:00+20ene1139100 0.0 10201797
15:00+19ene1245100 0.0 1020692
18:00+15ne3861100 0.0 1021269
21:00+14e3965100 0.0 1021401
10 may, mon
mon1000:00+10ene397492 0.0 1022254
03:00+8e288298 0.0 1022210
06:00+7ene278013 0.0 1023186
09:00+12ne34530 0.0 1022632
12:00+16nne34360 0.0 10211611
15:00+18nne45315 0.0 10202129
18:00+17nne46318 0.0 10192428
21:00+11ene225393 0.0 102011